Wind_Speed
40 40 38 37 37 38 37 34 32 31 28 25 23 21 20 20 18 17 17 19 19 20 22 25 25 23 21 22 23 23 24 23 22 22 21 20 20 19 18 16 14 13 12 10 8 7 5 4 3 1 0 1 2 3 4 4 5 6 6 7 7 8 8
44 43 41 39 39 39 38 36 33 32 30 27 25 23 22 21 20 18 19 20 21 20 22 24 25 24 22 22 22 22 22 23 23 22 22 21 21 20 19 17 16 14 13 11 10 8 7 6 4 3 2 2 3 4 4 5 5 6 6 7 7 7 7
46 45 42 40 39 39 39 37 33 32 31 29 27 25 23 22 20 20 20 21 22 22 22 24 25 26 25 23 22 22 22 22 22 22 22 21 21 20 19 18 17 15 14 13 12 10 9 8 7 6 5 5 5 5 6 6 6 6 7 7 7 7 7
48 47 43 40 39 39 39 38 35 34 33 31 28 26 25 23 21 21 21 21 23 23 23 23 24 26 27 25 23 23 22 22 21 21 21 22 21 21 20 19 18 16 15 14 13 12 11 10 9 8 8 8 8 8 8 8 8 7 8 8 8 7 7
47 47 44 41 40 40 40 38 36 35 34 32 30 28 27 25 22 21 21 22 23 23 23 23 24 26 27 27 26 24 23 22 22 22 22 21 21 21 20 19 18 18 17 16 15 14 13 12 11 11 11 10 10 10 10 10 9 9 9 9 8 8 8
46 47 44 43 42 42 41 38 36 36 35 34 32 29 28 26 23 22 22 22 23 24 24 24 24 25 26 28 29 28 26 25 24 23 23 22 22 21 20 20 19 19 19 18 17 16 15 14 14 13 13 13 13 12 12 11 11 10 10 10 9 9 9
45 46 45 45 44 44 42 39 37 36 36 36 33 31 29 27 24 23 23 23 24 24 25 25 25 24 24 26 29 30 30 28 27 25 24 23 22 21 21 21 21 21 20 20 19 18 18 17 17 16 16 15 15 14 14 13 13 12 12 11 11 11 10
45 46 46 46 46 46 44 42 40 39 38 37 35 33 31 29 26 24 23 24 25 26 25 25 25 25 24 24 26 29 31 30 29 28 26 25 24 23 23 23 23 22 22 22 20 20 20 19 19 18 18 17 17 16 16 16 15 14 14 14 13 13 13
46 46 48 49 49 47 46 44 43 41 39 37 36 34 32 30 28 26 25 26 26 27 27 26 26 25 24 24 25 27 29 30 30 30 29 28 27 26 26 26 25 25 25 24 23 22 21 21 21 20 20 19 19 19 19 18 18 17 16 16 16 16 15
49 48 50 51 51 49 48 46 44 43 41 39 37 35 33 32 31 29 28 27 27 27 27 27 26 25 25 24 24 26 28 29 30 30 30 29 28 28 28 28 28 27 27 26 25 24 23 23 23 22 22 22 22 22 22 21 21 20 19 18 18 18 17
54 52 52 53 53 52 51 49 47 45 43 41 39 37 35 34 33 32 31 29 27 28 27 26 25 25 24 23 23 25 27 28 29 29 28 27 27 27 27 28 28 27 27 27 26 26 25 25 25 24 24 24 25 25 24 24 23 22 21 20 20 19 19
58 55 53 53 53 54 53 52 51 49 45 43 42 40 38 36 35 35 33 30 28 28 27 26 24 24 24 24 24 25 26 26 27 26 25 23 23 23 24 25 25 25 25 25 25 25 26 26 26 25 24 25 25 26 25 25 25 24 22 22 21 21 21
60 57 55 54 53 54 54 54 55 53 48 45 44 43 40 39 38 37 34 32 30 29 28 26 24 24 24 24 24 24 24 25 25 23 21 20 19 19 21 22 22 22 22 23 23 24 24 25 24 24 23 23 24 24 24 24 24 24 23 22 23 23 23
62 60 59 58 56 55 56 56 56 55 51 47 46 44 43 41 40 38 36 33 32 31 29 27 25 24 23 23 24 24 24 24 23 21 20 19 18 18 19 19 20 20 20 21 22 23 23 23 23 23 22 22 22 23 23 23 23 23 23 23 23 24 24
64 63 62 61 57 56 57 58 58 55 52 49 46 45 43 42 41 40 37 35 34 33 31 29 27 25 24 23 23 22 22 22 21 21 20 19 19 19 19 18 18 18 18 20 21 21 21 21 22 22 23 23 22 22 23 23 23 23 23 23 24 25 25
67 65 64 63 60 57 58 59 60 57 54 51 48 46 44 43 42 41 38 36 35 35 33 31 28 26 25 23 21 20 20 20 20 20 20 20 19 18 17 17 17 17 18 19 19 20 20 20 21 21 22 23 23 23 23 23 23 23 24 24 25 26 27
70 69 67 65 63 59 58 60 62 60 56 54 52 49 47 45 44 42 40 38 36 35 33 31 28 27 25 22 20 19 19 19 19 19 19 19 18 17 17 16 17 17 18 18 19 19 19 19 19 20 20 22 23 23 23 23 23 23 24 25 26 27 28
75 73 70 67 66 63 59 60 63 62 59 57 54 52 50 48 46 45 42 40 38 37 35 32 30 29 27 25 24 23 22 21 20 20 20 20 19 19 18 17 17 17 18 18 19 18 18 18 18 18 18 20 21 22 22 21 21 22 23 24 25 26 28
80 76 75 71 68 66 62 60 62 63 61 60 56 53 53 50 49 47 44 41 40 40 39 38 36 34 33 32 31 29 27 25 24 23 22 22 21 21 20 19 18 17 17 17 17 17 18 18 17 17 17 18 20 20 21 20 20 21 22 23 24 25 27
86 81 79 76 72 69 65 62 62 62 62 61 58 56 55 53 51 50 47 44 44 44 44 42 40 38 37 37 36 33 30 29 28 27 25 24 24 24 23 22 20 18 17 17 17 18 18 17 17 17 17 18 18 19 20 20 20 20 21 22 23 24 25
90 86 83 81 77 74 69 63 60 61 63 62 59 58 57 56 53 53 52 50 49 48 47 45 43 41 39 39 38 35 32 31 30 28 28 27 26 26 25 23 21 20 19 18 18 19 18 18 17 17 17 18 18 19 19 20 19 20 20 21 22 23 25
90 91 88 85 82 80 76 67 61 60 61 60 60 61 60 59 57 56 56 54 52 50 49 47 46 44 41 39 38 36 35 34 31 29 28 28 27 27 26 24 22 21 20 20 20 19 19 19 19 18 17 18 19 19 19 19 19 20 20 21 22 23 24
89 91 92 90 87 84 82 77 70 64 60 60 64 64 60 60 62 61 59 57 54 52 50 49 48 46 44 42 40 39 38 36 33 31 30 28 27 27 26 24 23 22 22 21 21 21 20 20 20 19 18 19 20 21 20 19 20 20 20 20 21 22 24
93 92 93 93 91 88 85 82 79 74 67 63 67 67 62 62 65 64 61 58 55 53 52 51 50 48 46 44 42 41 40 38 34 33 32 31 28 27 25 25 23 22 22 22 22 22 22 22 22 22 21 20 21 21 21 21 21 21 21 20 21 22 23
96 93 93 94 93 91 88 86 83 80 75 70 70 70 67 65 65 64 62 60 57 55 54 53 52 50 49 47 44 42 41 39 36 35 34 33 31 28 26 25 24 23 23 24 24 24 24 24 24 25 24 23 22 22 22 22 22 22 22 21 21 22 23
99 94 95 97 96 92 90 88 86 84 81 77 75 74 72 69 67 66 63 61 59 57 56 55 53 51 50 48 44 41 40 39 38 36 34 34 33 30 27 26 24 24 25 25 26 25 25 26 27 27 27 26 25 24 24 24 24 24 23 23 22 23 23
103 98 97 99 99 96 94 92 90 88 85 82 81 79 75 72 70 68 65 60 58 58 59 58 55 52 51 48 43 41 41 41 42 41 37 36 34 31 27 26 26 27 27 27 28 28 28 28 28 29 29 29 28 27 26 26 26 25 25 24 24 24 23
107 105 101 99 99 99 98 96 94 91 87 85 84 81 78 74 72 70 67 63 59 58 59 60 58 55 53 50 45 43 43 43 44 44 41 39 35 32 30 30 29 29 29 29 30 30 30 31 31 31 31 31 30 30 28 27 27 27 27 27 26 25 25
110 110 108 104 100 99 100 99 97 94 91 88 86 83 80 76 73 71 70 67 64 62 61 60 60 57 55 52 48 46 46 46 45 44 42 41 39 37 35 33 31 31 32 33 33 32 32 33 33 33 33 33 33 32 31 30 29 29 29 28 28 27 26
111 111 112 110 105 102 101 101 99 97 95 91 88 85 83 80 75 73 73 71 68 66 65 63 61 58 56 55 52 51 50 49 47 45 43 43 42 40 37 35 33 34 35 36 35 34 34 35 36 36 36 35 34 34 33 32 32 32 31 30 29 28 28
114 113 113 113 110 105 103 103 101 100 98 96 91 88 86 84 79 77 76 74 70 68 68 67 63 61 59 57 56 55 54 53 50 47 45 44 42 39 37 36 36 36 37 37 37 36 37 38 38 39 39 37 36 36 35 34 34 34 34 32 30 29 28
118 116 114 114 113 109 107 105 103 101 100 98 95 91 89 87 84 80 78 77 73 71 69 68 65 63 63 61 59 58 57 55 51 48 48 47 44 42 40 39 37 37 38 38 38 39 39 40 42 43 42 40 38 38 37 36 36 36 36 34 32 30 28
120 119 117 115 115 113 111 108 106 104 101 99 97 95 92 90 88 85 81 79 76 72 69 67 65 64 65 64 61 60 58 57 54 52 50 49 48 47 46 43 41 41 40 40 41 41 42 44 46 45 43 42 41 40 39 38 38 38 37 35 32 30 28
122 122 120 118 116 116 115 112 109 108 105 101 99 97 95 93 92 90 87 83 79 75 70 67 65 64 64 64 62 60 59 59 57 55 53 52 52 51 50 48 46 45 44 43 43 43 45 47 47 46 45 45 44 43 42 41 41 41 39 35 32 30 29
124 124 123 121 118 117 117 115 112 111 109 106 102 100 98 97 95 94 93 90 86 81 77 73 70 67 66 65 63 61 60 59 59 58 56 55 55 54 52 51 48 46 45 45 45 46 48 49 49 48 49 49 48 46 46 45 44 42 39 35 32 31 30
125 126 125 123 120 118 117 117 115 113 111 108 105 102 101 100 98 97 96 94 91 87 83 81 78 74 72 70 67 65 62 60 60 61 60 59 58 58 56 53 49 46 45 47 49 51 50 50 51 52 52 52 52 51 50 49 47 44 40 36 33 31 30
126 127 127 125 122 120 118 117 116 115 113 110 107 104 103 102 101 99 97 96 94 90 87 85 83 81 79 76 73 71 68 65 63 63 63 63 62 61 59 55 52 50 50 52 54 54 52 52 53 54 55 55 56 55 54 52 49 46 42 38 34 32 30
127 128 128 127 124 122 120 118 116 117 116 114 111 108 106 104 102 100 99 98 96 93 91 88 86 84 82 80 77 75 74 71 69 67 66 65 64 63 60 57 54 54 55 56 57 56 54 54 56 57 57 57 58 59 58 56 54 50 45 41 36 33 31
Wind_Direction
216 211 210 210 212 215 216 217 219 219 218 218 215 214 216 212 205 205 204 200 200 202 204 207 209 209 207 202 200 198 199 202 205 208 209 207 205 204 203 200 198 197 196 195 196 197 196 196 195 186 15 1 352 347 348 350 353 356 359 3 10 16 19
217 213 211 212 214 216 217 217 218 217 217 218 216 214 216 212 204 203 204 202 201 202 205 206 207 206 206 203 201 199 197 199 201 204 206 205 205 206 206 205 204 205 206 207 207 208 208 210 214 222 246 274 293 304 313 321 329 336 341 346 351 359 6
216 213 211 214 216 216 215 216 217 217 216 215 214 214 215 212 204 201 202 203 203 203 204 206 207 205 203 203 203 201 198 198 200 202 204 205 206 207 207 208 210 212 215 216 216 217 219 221 226 234 247 262 275 286 294 301 308 315 322 329 334 340 348
214 211 211 214 217 216 214 214 217 218 216 213 211 211 214 212 204 200 200 204 207 206 204 205 208 207 204 202 202 203 201 199 200 202 204 207 208 209 209 211 214 218 221 224 224 225 227 231 235 241 249 259 268 276 282 288 294 300 306 314 321 326 332
213 210 211 215 216 213 211 213 217 218 216 212 208 209 212 211 204 199 198 203 208 210 207 204 207 209 207 203 201 204 204 201 200 202 205 209 211 213 214 216 218 222 227 230 232 233 235 239 243 247 253 259 265 271 276 280 286 291 297 304 312 317 322
214 212 213 216 215 211 211 214 218 218 215 212 208 208 212 211 205 200 198 201 207 212 210 207 207 211 211 207 203 202 204 204 202 202 204 208 213 216 219 221 223 226 231 235 238 241 243 246 250 253 258 262 266 270 274 278 283 288 293 300 307 314 318
215 215 217 218 215 211 212 217 219 217 214 212 209 208 211 210 207 203 199 200 206 211 212 210 210 212 214 213 208 205 205 207 206 205 206 209 213 218 223 227 229 232 236 240 243 247 250 253 256 258 262 266 269 273 277 281 286 291 295 300 306 312 316
217 217 220 220 216 212 213 217 219 217 214 212 210 209 209 209 208 206 202 201 204 209 212 212 211 211 212 215 214 210 208 209 210 210 210 212 214 219 225 230 234 237 240 243 247 250 253 256 258 261 264 268 273 277 280 284 289 293 297 300 303 308 313
219 217 220 221 219 214 213 216 218 217 214 212 212 211 209 208 208 207 205 204 204 207 210 211 210 209 210 211 213 212 210 210 212 214 215 216 218 221 226 231 235 238 241 244 247 250 253 257 259 261 265 269 275 280 283 285 288 292 295 299 301 304 308
222 218 218 219 219 217 214 215 216 216 214 212 212 212 210 208 208 208 208 206 206 207 209 210 209 208 208 209 210 211 210 210 211 214 216 218 221 224 229 233 236 240 243 245 248 250 253 256 259 262 265 269 274 280 284 286 288 291 293 297 299 301 304
225 220 217 217 217 217 216 215 216 216 214 212 211 212 211 209 208 210 210 207 207 209 210 210 209 207 206 206 208 211 213 213 212 213 215 217 221 225 230 235 240 244 247 249 251 252 254 257 261 264 267 271 274 279 283 286 288 290 292 295 297 298 300
227 224 220 218 216 217 217 216 215 216 214 212 212 211 210 210 210 212 211 208 208 210 210 209 208 207 204 202 204 208 213 217 218 216 215 216 219 224 230 236 242 247 250 253 255 256 257 260 264 268 270 273 276 280 283 285 287 290 292 294 295 296 297
226 226 224 221 218 217 219 218 217 217 216 213 212 212 211 210 211 213 212 210 210 211 210 208 207 207 205 202 202 204 208 216 221 222 219 217 218 222 229 235 241 246 250 253 255 256 258 261 265 269 272 273 276 280 283 285 288 291 293 294 295 295 296
223 226 226 224 219 216 217 218 218 218 218 217 215 213 212 211 212 213 212 211 212 213 211 209 208 207 206 204 203 203 205 211 217 221 222 220 218 220 225 230 237 244 249 252 254 256 259 262 265 269 271 273 276 279 282 285 288 291 294 295 295 295 296
220 224 227 228 223 217 215 216 217 217 218 218 217 216 215 214 214 214 213 212 214 215 213 212 211 209 209 209 208 206 207 209 212 216 220 220 219 220 221 224 230 238 246 252 255 259 262 265 267 269 272 275 277 279 281 284 287 290 292 294 294 295 296
217 221 225 228 226 220 215 216 216 217 216 215 214 215 216 217 217 216 215 215 216 217 216 215 215 213 212 214 213 212 213 212 213 216 220 224 225 224 222 222 224 229 237 246 252 257 261 264 267 269 273 277 279 280 282 284 287 289 291 292 293 294 296
215 218 221 225 227 223 217 215 215 217 217 216 213 213 215 217 218 218 218 218 219 220 219 218 218 218 218 219 220 221 221 221 220 221 225 231 233 232 229 226 225 227 231 237 243 249 254 259 263 267 271 275 278 281 283 284 287 289 290 291 292 294 296
214 215 217 220 225 226 221 216 215 216 218 218 215 214 215 216 218 217 217 218 220 220 218 217 217 218 219 219 220 222 223 224 225 225 227 233 237 238 237 233 231 231 231 234 239 244 249 254 258 262 266 270 274 279 283 286 287 288 288 290 291 292 294
213 214 215 216 219 223 225 220 216 215 218 219 217 216 215 216 218 218 216 217 220 222 219 217 214 213 213 214 215 216 217 219 222 224 226 231 236 239 240 238 238 238 238 240 242 245 249 253 258 262 266 270 275 279 284 287 288 288 290 291 292 292 293
212 212 214 214 214 217 222 224 220 215 215 217 218 218 217 216 218 219 216 213 217 221 221 219 217 214 213 214 215 215 215 216 218 219 221 225 231 235 238 241 243 245 246 246 247 249 253 258 262 265 269 274 279 282 287 290 292 293 294 294 295 296 296
211 211 212 213 213 213 215 220 221 217 214 215 217 219 220 218 217 219 218 214 214 218 220 220 219 218 217 218 218 218 218 219 221 220 219 221 226 231 235 239 243 248 250 252 253 255 259 263 265 268 271 277 282 285 288 293 295 297 297 298 300 300 300
209 210 211 212 212 212 211 213 215 215 215 216 216 218 221 221 219 218 218 217 216 216 218 219 220 220 220 222 223 222 222 223 225 227 226 225 226 229 233 237 242 247 252 255 258 261 264 266 268 271 274 277 281 284 287 292 295 297 298 300 301 302 304
210 209 211 212 212 211 210 210 210 209 210 212 212 213 216 221 222 220 218 218 217 216 217 220 222 222 221 222 225 227 227 226 227 231 234 233 231 231 233 237 241 246 252 256 260 263 266 268 270 272 272 273 277 281 286 290 293 295 297 298 300 302 305
213 210 210 212 213 211 210 210 210 208 207 206 207 208 210 216 221 221 218 218 218 218 218 220 222 222 222 223 225 227 230 231 231 234 236 237 237 236 236 239 243 248 253 256 259 262 264 267 270 271 271 271 272 277 282 285 288 290 293 296 299 300 303
214 213 211 212 213 213 211 210 210 211 209 206 206 207 208 212 219 222 220 218 218 219 220 220 221 222 222 223 224 225 227 230 234 236 237 237 238 238 238 241 245 250 254 256 258 261 263 265 268 270 271 272 272 274 277 280 283 285 288 292 295 296 300
213 213 212 212 213 213 212 211 210 211 211 209 209 210 209 210 216 221 221 219 219 221 222 222 222 223 223 223 224 225 224 226 230 234 236 235 236 237 239 242 245 249 253 257 259 261 262 263 265 268 270 272 273 273 274 276 279 281 284 287 289 292 297
212 212 213 213 212 212 212 212 211 211 211 210 210 212 211 210 213 218 219 219 221 223 223 223 222 224 225 224 224 224 223 223 227 231 234 236 236 237 241 244 246 249 253 256 259 260 262 263 265 267 269 271 272 273 272 273 275 278 280 283 285 288 293
212 212 212 213 212 211 212 213 212 211 210 210 211 212 213 211 211 214 216 217 220 223 224 222 221 223 225 226 225 226 226 225 225 228 233 236 236 238 242 245 247 250 254 256 258 259 261 263 265 266 268 269 270 272 272 272 274 276 278 281 284 287 290
212 212 213 213 214 213 212 212 212 211 210 210 211 212 213 213 212 212 213 214 218 222 223 221 220 221 224 225 226 227 228 228 226 227 231 234 237 242 246 246 246 249 253 255 257 258 260 263 265 266 267 268 269 271 273 274 275 276 278 281 284 286 289
212 213 213 214 214 215 214 212 212 212 210 210 210 211 213 214 212 211 213 214 216 220 223 222 220 221 224 226 226 227 228 230 229 229 231 234 239 243 247 247 247 249 252 254 256 258 261 263 265 267 268 268 269 271 272 273 274 276 278 281 283 285 288
212 213 213 214 213 214 215 214 213 212 211 209 209 210 212 214 214 213 214 215 216 219 222 222 221 222 225 227 227 228 229 231 232 232 232 233 236 240 244 248 251 252 252 253 255 258 261 264 266 267 267 268 269 270 271 273 274 276 277 280 283 285 288
213 213 213 214 213 213 215 215 214 213 211 209 208 209 211 213 215 214 214 215 216 218 220 221 221 222 225 227 228 229 230 231 233 233 232 231 233 238 243 248 252 252 252 253 255 258 261 263 263 264 266 268 269 270 272 273 273 274 276 279 282 285 289
213 213 213 214 213 213 214 215 215 214 213 210 209 209 210 212 214 215 214 214 215 216 218 219 220 221 223 226 228 230 231 232 233 234 233 231 233 238 243 247 250 251 252 253 256 258 260 262 263 265 267 269 270 270 271 271 271 272 274 276 281 285 288
213 214 214 214 214 213 213 214 216 216 215 212 209 209 210 212 213 215 215 215 215 216 217 218 219 220 222 225 228 230 232 232 233 235 235 234 235 238 243 246 248 249 251 253 257 260 262 263 265 267 268 269 269 268 268 268 269 270 272 276 281 284 285
212 214 214 214 214 214 213 213 215 217 216 214 211 210 211 212 213 215 216 217 218 220 220 219 219 220 223 225 227 229 231 232 233 234 236 236 237 240 243 245 247 249 250 252 256 260 262 264 266 266 266 267 267 266 266 266 266 268 272 275 277 279 281
212 213 214 214 213 214 214 213 214 216 217 216 214 211 211 212 213 215 217 218 219 221 222 222 222 223 225 226 227 228 230 232 233 234 236 238 239 240 243 246 248 249 250 252 257 261 262 264 265 265 266 267 267 266 265 264 265 267 270 271 273 275 277
212 213 214 214 213 214 215 214 214 215 217 217 216 214 212 212 214 215 217 219 220 220 221 222 223 224 226 227 227 228 230 233 234 235 236 238 239 242 245 247 248 248 249 252 256 260 261 263 264 265 265 267 267 267 266 266 266 266 267 267 269 271 272
212 213 214 214 214 213 214 215 214 214 215 217 218 217 216 214 214 215 218 220 220 221 221 222 223 225 226 227 228 229 231 233 235 236 237 239 241 244 246 247 249 249 250 253 257 260 262 265 266 264 263 263 265 266 267 267 265 264 264 265 266 267 268
Height
10958 10962 10964 10967 10970 10972 10974 10978 10981 10983 10986 10988 10988 10989 10991 10993 10994 10996 10997 10999 11000 11002 11003 11005 11008 11011 11012 11013 11014 11014 11016 11018 11020 11022 11024 11025 11026 11027 11028 11029 11029 11030 11030 11031 11031 11032 11032 11031 11031 11031 11031 11031 11032 11032 11032 11032 11032 11032 11032 11033 11033 11032 11032
10955 10958 10961 10964 10966 10969 10972 10975 10978 10980 10983 10985 10986 10988 10990 10991 10992 10994 10995 10997 10998 11000 11002 11004 11006 11009 11011 11012 11013 11014 11015 11017 11018 11020 11022 11024 11025 11026 11027 11028 11029 11029 11030 11030 11031 11031 11031 11031 11031 11031 11031 11031 11032 11032 11032 11032 11032 11032 11032 11032 11033 11032 11032
10951 10955 10958 10961 10963 10966 10970 10972 10975 10978 10981 10983 10985 10987 10988 10989 10990 10991 10993 10995 10996 10998 11000 11002 11004 11006 11009 11011 11012 11013 11014 11015 11017 11019 11021 11023 11024 11025 11027 11027 11028 11028 11029 11030 11030 11030 11030 11031 11031 11031 11031 11031 11031 11032 11032 11032 11032 11032 11032 11032 11032 11032 11032
10947 10951 10955 10958 10961 10964 10967 10969 10972 10975 10978 10981 10983 10985 10987 10987 10988 10989 10991 10993 10995 10996 10998 11000 11002 11004 11006 11009 11010 11012 11013 11014 11016 11018 11020 11022 11023 11024 11025 11026 11027 11028 11028 11029 11029 11029 11030 11030 11030 11031 11031 11031 11031 11031 11031 11031 11031 11032 11032 11032 11032 11032 11032
10944 10949 10953 10956 10959 10962 10964 10967 10969 10972 10976 10979 10981 10983 10984 10985 10986 10988 10990 10992 10994 10995 10997 10998 11000 11002 11004 11006 11008 11010 11011 11013 11015 11016 11018 11020 11021 11023 11024 11025 11026 11027 11027 11028 11028 11029 11029 11029 11030 11030 11030 11030 11030 11030 11031 11031 11031 11031 11031 11031 11032 11032 11032
10942 10947 10950 10953 10956 10959 10962 10964 10967 10971 10974 10977 10979 10980 10982 10984 10985 10986 10988 10990 10992 10994 10995 10997 10998 11000 11002 11004 11005 11007 11009 11011 11012 11014 11016 11017 11019 11021 11023 11024 11025 11025 11026 11027 11027 11028 11028 11029 11029 11029 11029 11030 11030 11030 11030 11030 11030 11031 11031 11031 11031 11032 11032
10941 10944 10947 10949 10953 10957 10960 10963 10966 10969 10972 10975 10977 10978 10980 10982 10984 10985 10986 10988 10990 10992 10994 10995 10996 10998 11001 11003 11003 11004 11005 11008 11010 11011 11013 11015 11017 11019 11021 11022 11023 11024 11025 11025 11026 11027 11027 11027 11028 11028 11028 11029 11029 11029 11029 11030 11030 11030 11031 11031 11031 11031 11031
10939 10942 10945 10947 10950 10955 10958 10960 10963 10966 10970 10972 10974 10976 10978 10980 10982 10983 10985 10986 10988 10990 10991 10993 10994 10996 10998 11001 11002 11003 11003 11005 11007 11009 11010 11012 11014 11016 11018 11020 11021 11022 11023 11024 11024 11025 11025 11026 11027 11027 11027 11028 11028 11028 11028 11029 11029 11030 11030 11030 11030 11031 11031
10935 10939 10941 10943 10947 10952 10955 10957 10960 10963 10967 10969 10971 10973 10976 10978 10980 10981 10982 10984 10985 10987 10989 10991 10992 10993 10996 10998 11000 11002 11002 11002 11004 11005 11007 11009 11011 11013 11015 11017 11019 11019 11021 11022 11022 11023 11024 11024 11025 11025 11026 11026 11026 11027 11027 11027 11028 11028 11029 11029 11029 11029 11029
10929 10933 10935 10939 10943 10948 10951 10954 10957 10959 10963 10966 10968 10970 10973 10975 10977 10978 10980 10982 10984 10985 10987 10989 10990 10991 10993 10995 10998 11000 11000 11000 11001 11002 11004 11006 11008 11010 11012 11014 11016 11017 11018 11019 11020 11021 11022 11023 11023 11024 11024 11024 11025 11025 11025 11025 11026 11027 11027 11027 11027 11027 11028
10922 10925 10929 10933 10937 10942 10947 10950 10952 10955 10958 10962 10964 10967 10970 10972 10974 10975 10977 10980 10982 10984 10985 10987 10988 10990 10991 10993 10995 10998 10998 10998 10998 10999 11000 11003 11005 11007 11009 11011 11013 11015 11016 11017 11018 11019 11020 11021 11021 11022 11023 11023 11023 11023 11023 11024 11024 11025 11025 11025 11026 11026 11026
10917 10922 10926 10931 10935 10939 10942 10945 10947 10950 10954 10957 10960 10963 10966 10969 10971 10972 10974 10977 10980 10981 10983 10985 10987 10988 10989 10991 10992 10994 10996 10997 10997 10997 10998 11000 11002 11004 11006 11008 11010 11012 11014 11015 11016 11017 11018 11019 11019 11020 11021 11021 11021 11021 11022 11022 11022 11023 11023 11024 11024 11024 11024
10915 10919 10924 10928 10932 10936 10939 10942 10944 10946 10950 10954 10956 10959 10962 10965 10967 10969 10972 10975 10977 10979 10981 10983 10985 10986 10988 10989 10990 10992 10994 10995 10996 10997 10998 10999 11000 11002 11003 11005 11007 11009 11011 11013 11014 11015 11016 11016 11017 11018 11019 11019 11020 11020 11020 11020 11020 11021 11021 11022 11021 11021 11022
10912 10914 10917 10920 10925 10930 10934 10938 10941 10945 10949 10952 10954 10957 10959 10961 10963 10966 10969 10972 10974 10977 10979 10981 10982 10984 10986 10988 10989 10990 10992 10993 10995 10996 10997 10998 10999 11000 11001 11002 11004 11006 11008 11010 11011 11012 11013 11014 11015 11016 11016 11017 11018 11018 11018 11019 11019 11019 11019 11020 11020 11019 11019
10907 10909 10910 10914 10920 10926 10930 10933 10937 10941 10946 10950 10953 10956 10958 10959 10961 10964 10966 10969 10972 10974 10977 10979 10980 10983 10985 10987 10988 10989 10991 10992 10994 10995 10996 10997 10997 10997 10998 11000 11001 11003 11005 11006 11008 11010 11011 11012 11013 11013 11014 11014 11015 11016 11016 11017 11017 11018 11018 11018 11017 11017 11017
10902 10904 10905 10908 10914 10920 10925 10929 10933 10937 10940 10944 10949 10952 10954 10957 10959 10962 10965 10968 10970 10972 10975 10977 10979 10981 10984 10986 10988 10989 10990 10992 10993 10994 10995 10996 10996 10996 10997 10998 10999 11001 11002 11004 11005 11007 11009 11010 11010 11011 11011 11012 11013 11013 11014 11015 11016 11016 11016 11016 11015 11015 11015
10894 10897 10900 10903 10907 10913 10919 10924 10927 10931 10935 10939 10943 10946 10949 10952 10956 10960 10963 10966 10968 10971 10974 10976 10978 10980 10983 10985 10987 10988 10989 10991 10992 10994 10995 10995 10996 10996 10996 10997 10998 10999 11000 11001 11003 11004 11006 11007 11008 11008 11009 11010 11010 11011 11012 11013 11014 11014 11014 11014 11014 11013 11013
10885 10889 10893 10898 10902 10906 10912 10917 10921 10926 10930 10934 10939 10943 10945 10948 10951 10955 10960 10964 10966 10969 10971 10973 10974 10976 10978 10981 10982 10983 10984 10987 10989 10991 10992 10994 10995 10995 10996 10996 10996 10997 10998 10999 11000 11002 11003 11004 11005 11006 11007 11007 11007 11008 11009 11010 11012 11012 11012 11012 11012 11012 11011
10875 10881 10886 10891 10896 10900 10904 10910 10915 10921 10925 10929 10934 10938 10942 10945 10948 10951 10956 10961 10964 10966 10966 10967 10968 10970 10972 10974 10975 10975 10978 10980 10983 10985 10988 10990 10992 10993 10994 10994 10995 10996 10997 10998 10999 11000 11001 11002 11003 11003 11004 11004 11005 11005 11006 11007 11009 11009 11010 11010 11010 11010 11009
10864 10872 10878 10883 10888 10892 10897 10902 10908 10915 10921 10924 10928 10933 10938 10942 10945 10947 10950 10953 10956 10959 10961 10963 10964 10965 10967 10968 10969 10970 10972 10974 10976 10979 10981 10984 10987 10989 10991 10992 10993 10994 10995 10996 10997 10998 10998 10999 11001 11001 11001 11002 11002 11002 11003 11004 11005 11006 11007 11007 11007 11007 11007
10855 10862 10869 10875 10880 10884 10889 10894 10899 10907 10915 10920 10926 10930 10933 10937 10940 10942 10944 10945 10947 10950 10954 10957 10959 10961 10963 10965 10966 10969 10970 10971 10972 10974 10976 10978 10981 10984 10987 10989 10991 10992 10993 10995 10995 10996 10996 10997 10998 10999 10999 10999 11000 11000 11000 11001 11002 11003 11004 11004 11005 11004 11004
10846 10853 10859 10865 10870 10874 10879 10885 10891 10899 10907 10914 10921 10924 10928 10932 10934 10936 10937 10939 10941 10944 10948 10950 10952 10955 10959 10962 10965 10967 10968 10969 10971 10973 10974 10975 10977 10980 10984 10986 10988 10989 10991 10992 10993 10994 10995 10995 10996 10997 10997 10997 10997 10997 10998 10998 10999 11000 11001 11001 11002 11001 11001
10836 10844 10850 10855 10860 10865 10870 10876 10883 10890 10896 10902 10908 10915 10923 10926 10924 10926 10930 10933 10936 10940 10942 10945 10946 10949 10954 10957 10960 10962 10964 10967 10970 10972 10973 10974 10975 10978 10980 10983 10985 10986 10988 10989 10991 10991 10992 10992 10993 10994 10995 10995 10995 10994 10995 10995 10996 10996 10997 10998 10998 10998 10998
10826 10834 10841 10846 10851 10856 10862 10868 10875 10881 10887 10892 10896 10905 10913 10914 10912 10917 10925 10929 10932 10935 10937 10938 10940 10943 10947 10951 10954 10957 10961 10964 10967 10970 10971 10973 10974 10976 10978 10980 10982 10983 10985 10986 10988 10988 10989 10989 10990 10990 10991 10992 10992 10991 10992 10992 10992 10993 10993 10994 10995 10994 10994
10817 10825 10832 10837 10843 10849 10855 10861 10867 10873 10879 10885 10889 10895 10901 10903 10904 10911 10918 10923 10927 10930 10931 10932 10934 10937 10941 10945 10949 10954 10958 10961 10964 10967 10968 10970 10971 10974 10975 10977 10979 10980 10982 10983 10984 10985 10986 10986 10986 10986 10986 10987 10988 10989 10989 10989 10989 10989 10989 10990 10990 10990 10990
10808 10815 10822 10828 10835 10842 10849 10854 10859 10864 10870 10875 10880 10886 10892 10897 10900 10905 10911 10917 10922 10924 10925 10927 10930 10933 10937 10940 10945 10950 10955 10958 10961 10963 10964 10965 10968 10971 10973 10974 10975 10977 10978 10980 10981 10982 10982 10982 10982 10982 10982 10983 10984 10985 10985 10985 10985 10985 10985 10986 10987 10987 10987
10798 10805 10811 10817 10825 10833 10839 10845 10849 10855 10861 10866 10871 10876 10883 10889 10894 10898 10905 10910 10914 10916 10919 10922 10926 10930 10933 10936 10941 10945 10949 10953 10956 10959 10960 10961 10964 10968 10970 10970 10971 10972 10974 10976 10977 10978 10979 10979 10979 10978 10978 10978 10979 10980 10981 10982 10982 10982 10982 10983 10983 10983 10984
10786 10794 10800 10806 10813 10820 10827 10833 10839 10846 10853 10858 10863 10868 10874 10881 10886 10891 10897 10902 10905 10908 10912 10917 10921 10925 10929 10933 10937 10940 10944 10948 10951 10954 10956 10958 10961 10964 10966 10967 10967 10969 10970 10972 10973 10974 10974 10974 10975 10974 10974 10974 10975 10975 10977 10979 10979 10979 10979 10980 10980 10981 10981
10774 10782 10789 10796 10802 10809 10816 10823 10829 10837 10844 10850 10856 10861 10867 10873 10878 10884 10889 10892 10896 10901 10905 10910 10915 10920 10924 10928 10932 10935 10939 10942 10946 10949 10952 10954 10957 10959 10960 10963 10964 10965 10966 10967 10969 10970 10970 10970 10970 10970 10970 10971 10971 10972 10973 10975 10976 10976 10976 10977 10978 10978 10978
10762 10770 10778 10785 10792 10799 10807 10813 10820 10827 10835 10842 10849 10855 10860 10865 10870 10876 10880 10883 10888 10894 10898 10903 10909 10915 10920 10923 10927 10930 10933 10936 10940 10944 10947 10950 10952 10954 10956 10958 10959 10960 10962 10963 10964 10965 10965 10965 10966 10966 10966 10967 10968 10968 10969 10971 10972 10972 10973 10974 10975 10975 10975
10750 10758 10766 10774 10782 10790 10796 10803 10811 10818 10825 10834 10841 10848 10853 10857 10862 10867 10871 10875 10882 10887 10891 10897 10904 10910 10914 10918 10921 10924 10928 10931 10935 10939 10942 10945 10947 10949 10950 10952 10953 10955 10957 10958 10959 10960 10960 10960 10960 10960 10961 10962 10963 10964 10964 10966 10967 10967 10968 10969 10971 10971 10972
10738 10746 10754 10763 10773 10781 10787 10794 10802 10809 10817 10826 10833 10840 10845 10850 10855 10859 10863 10869 10875 10880 10885 10891 10898 10904 10907 10911 10915 10917 10921 10925 10929 10933 10936 10939 10942 10944 10945 10946 10948 10950 10951 10953 10955 10955 10954 10954 10953 10953 10955 10957 10958 10959 10960 10961 10962 10962 10962 10964 10965 10966 10967
10725 10734 10743 10752 10761 10770 10777 10785 10793 10801 10809 10818 10826 10832 10838 10843 10847 10852 10857 10863 10869 10874 10879 10885 10892 10897 10901 10904 10907 10910 10914 10919 10922 10926 10930 10933 10936 10938 10939 10941 10943 10944 10946 10948 10948 10948 10947 10947 10947 10948 10950 10951 10953 10954 10955 10955 10956 10956 10957 10959 10960 10962 10963
10713 10722 10731 10740 10749 10758 10767 10776 10783 10791 10799 10809 10817 10825 10830 10836 10840 10845 10851 10857 10862 10867 10873 10880 10886 10890 10894 10897 10900 10904 10908 10912 10915 10919 10923 10927 10930 10932 10933 10935 10937 10939 10941 10942 10942 10942 10941 10941 10941 10943 10945 10945 10947 10949 10949 10949 10949 10950 10952 10955 10956 10957 10958
10702 10710 10718 10728 10738 10747 10756 10765 10774 10781 10789 10798 10808 10816 10823 10828 10833 10838 10843 10849 10855 10861 10867 10874 10879 10883 10886 10889 10894 10898 10901 10904 10908 10912 10916 10919 10922 10924 10926 10928 10931 10934 10935 10936 10936 10937 10936 10936 10937 10938 10938 10939 10941 10943 10943 10943 10943 10944 10948 10951 10952 10952 10953
10690 10698 10706 10716 10727 10736 10745 10755 10764 10772 10780 10789 10799 10808 10815 10820 10825 10831 10836 10842 10848 10855 10861 10867 10872 10876 10879 10882 10887 10891 10895 10898 10902 10905 10909 10912 10914 10916 10919 10923 10926 10929 10930 10930 10930 10931 10931 10932 10932 10932 10932 10934 10935 10936 10936 10936 10938 10940 10943 10946 10947 10947 10948
10677 10686 10694 10705 10717 10726 10734 10744 10755 10763 10771 10780 10790 10799 10806 10812 10818 10824 10829 10835 10841 10849 10854 10858 10863 10868 10871 10875 10880 10885 10888 10892 10895 10899 10902 10904 10907 10910 10913 10917 10920 10921 10921 10921 10922 10922 10924 10925 10926 10927 10928 10928 10928 10928 10930 10931 10933 10935 10937 10939 10941 10942 10942
10665 10674 10683 10694 10706 10716 10725 10734 10744 10753 10762 10770 10780 10788 10796 10803 10811 10818 10823 10827 10833 10840 10846 10851 10855 10860 10864 10869 10874 10879 10882 10886 10890 10893 10895 10898 10901 10905 10907 10910 10911 10912 10913 10913 10914 10915 10916 10917 10918 10920 10921 10922 10921 10921 10923 10924 10926 10929 10931 10934 10936 10937 10937